Regional Weather Roundup
Issued by NWS

Home | Current Version | Previous Version | Graphics & Text | Print | Product List | Glossary On
Versions: 1 2 3 4 5 6 7 8 9 10 11 12 13 14 15 16 17 18 19 20 21 22 23 24 25 26 27 28 29 30 31 32 33 34 35 36 37 38 39 40 41 42 43 44 45 46 47 48 49 50
547
ASUS43 KLSX 302159
RWRMO

WEATHER SUMMARY FOR MISSOURI
NATIONAL WEATHER SERVICE SPRINGFIELD MO
500 PM CDT SUN APR 30 2017

NOTE: "FAIR" INDICATES FEW OR NO CLOUDS BELOW 12,000 FEET WITH NO
       SIGNIFICANT WEATHER AND/OR OBSTRUCTIONS TO VISIBILITY.
       CURRENT SKY AND/OR WEATHER CONDITIONS ARE NOT AVAILABLE FOR
       CHILLICOTHE AND FARMINGTON.

MOZ001>031-035>038-043-044-053-054-302300-
...NORTHERN AND WESTERN MISSOURI...

CITY           SKY/WX    TMP DP  RH WIND       PRES   REMARKS
KANSAS CTY INT CLOUDY    55  45  68 SW15G24   29.46S
KANSAS C DTWN  CLOUDY   N/A N/A N/A S17G28    29.47S
LEE`S SUMMIT     N/A     55  43  63 S21G44    29.48S
ST JOSEPH      CLOUDY    57  52  83 S7        29.46F
CHILLICOTHE      N/A     55  53  93 CALM      29.48F
KIRKSVILLE     RAIN      52  31  44 SW16G22   29.51R

$$
MOZ066>068-077>081-088>096-101>105-302300-
...SOUTHWEST MISSOURI...

CITY           SKY/WX    TMP DP  RH WIND       PRES   REMARKS
SPRINGFIELD    PTSUNNY   60  44  55 SW24G33   29.55R
JOPLIN         CLOUDY    55  39  54 S24G35    29.55S
BRANSON        MOSUNNY   59  41  51 S14G25    29.59R

$$
MOZ032>034-039>042-045>050-055>058-069>072-302300-
...CENTRAL MISSOURI...

CITY           SKY/WX    TMP DP  RH WIND       PRES   REMARKS
COLUMBIA       LGT RAIN  63  62  97 W10       29.46R
JEFFERSON CITY LGT RAIN  68  62  81 NW3       29.45R
ROLLA          CLOUDY    72  59  63 S23G32    29.47R
SEDALIA        SUNNY     65  52  62 SW21      29.47F
OSAGE BEACH    PTSUNNY   72  47  40 SW20G32   29.47S

$$
MOZ051-052-059>065-302300-
...EAST CENTRAL MISSOURI...

CITY           SKY/WX    TMP DP  RH WIND       PRES   REMARKS
ST LOUIS INTL  CLOUDY    74  65  73 SE21G31   29.50F
SPIRIT OF STL  CLOUDY    73  67  81 SE16G24     N/A
ST CHARLES     CLOUDY    72  67  84 SE23G32   29.49F

$$
MOZ072>076-082>087-097>100-106>115-302300-
...SOUTH CENTRAL AND SOUTHEAST MISSOURI...

CITY           SKY/WX    TMP DP  RH WIND       PRES   REMARKS
CAPE GIRARDEAU LGT RAIN  71  66  84 S23G36    29.60F
FARMINGTON     CLOUDY    70  64  81 S24G31    29.52F
POPLAR BLUFF   CLOUDY    70  66  87 S17G28    29.59F
WEST PLAINS    SUNNY     67  49  52 S18G29    29.57F

$$




USA.gov is the U.S. government's official web portal to all federal, state and local government web resources and services.